Flag for Portugal Weather past 2 weeks in Faro, Portugal

Now
64 °F

Clear.


Feels Like: 64 °F
Forecast: 65 / 82 °F
Wind: 3 mph from West

Location: Faro / Aeroporto

Current Time: Jul 23, 2014 at 6:59:35 AM

Latest Report: Jul 23, 2014 at 6:00 AM


Visibility: 10 mi

Pressure: 29.89 "Hg

Humidity: 49%

Dew point: 45 °F

Location of FaroLocation

Historic Weather in Faro — Graph

°F

Faro temperature yesterday

Maximum temperature yesterday: 84 °F (at 4:00 PM)
Minimum temperature yesterday: 68 °F (at 5:30 AM)
Average temperature yesterday: 76 °F

Past Weeks' High & Low Weather Summary

 TemperatureHumidityPressure
High88 °F (Jul 8, 8:30 PM)100% (Jul 19, 6:30 AM)30.12 "Hg (Jul 19, 6:30 AM)
Low63 °F (Jul 20, 5:00 AM)24% (Jul 23, 12:00 AM)29.86 "Hg (Jul 23, 5:00 AM)
Average75 °F65%29.98 "Hg
* Reported Jul 8 5:00 AM — Jul 23 5:00 AM, Faro, Weather by CustomWeather, © 2014

Note: Actual official high and low records may vary slightly from our data, if they occured in-between our weather recording intervals... More about our weather records

Advertising

Faro weather history for previous 24 hours

 ConditionsComfort  
Time TempWeatherWind HumidityBarometerVisibility
5:00 AM
Jul 23
66 °FClear.5 mph49%29.86 "Hg10 mi
4:30 AM68 °FClear.3 mph69%29.89 "Hg10 mi
4:00 AM66 °FClear.7 mph83%29.89 "Hg10 mi
3:30 AM68 °FClear.6 mph78%29.89 "Hg10 mi
3:00 AM70 °FClear.7 mph73%29.89 "Hg10 mi
2:30 AM72 °FClear.5 mph57%29.89 "Hg10 mi
2:00 AM72 °FClear.3 mph57%29.89 "Hg10 mi
1:30 AM75 °FClear.3 mph41%29.92 "Hg10 mi
12:30 AM75 °FClear.2 mph24%29.89 "Hg10 mi
12:00 AM77 °FClear.5 mph24%29.92 "Hg10 mi
5:30 PM
Jul 22
82 °FSunny.13 mph40%29.92 "Hg10 mi
5:00 PM82 °FSunny.13 mph42%29.92 "Hg10 mi
4:30 PM84 °FSunny.10 mph35%29.92 "Hg10 mi
4:00 PM84 °FSunny.10 mph37%29.95 "Hg10 mi
3:30 PM82 °FSunny.10 mph42%29.95 "Hg10 mi
3:00 PM82 °FSunny.8 mph42%29.95 "Hg10 mi
2:30 PM82 °FSunny.10 mph45%29.95 "Hg10 mi
2:00 PM81 °FSunny.10 mph51%29.98 "Hg10 mi
1:30 PM79 °FSunny.10 mph54%29.98 "Hg10 mi
1:00 PM79 °FSunny.8 mph54%29.98 "Hg10 mi
12:30 PM77 °FSunny.7 mph61%29.98 "Hg10 mi
12:00 PM77 °FSunny.7 mph61%29.98 "Hg10 mi
11:30 AM77 °FPassing clouds.5 mph61%29.98 "HgN/A
11:00 AM79 °FPassing clouds.5 mph58%29.98 "HgN/A
10:52 AM79 °FPassing clouds.5 mph58%29.98 "HgN/A
10:30 AM75 °FPassing clouds.6 mph69%29.98 "HgN/A
10:00 AM75 °FPassing clouds.6 mph65%29.98 "HgN/A
9:30 AM73 °FPassing clouds.7 mph74%29.98 "HgN/A
9:00 AM73 °FSunny.6 mph69%29.98 "Hg10 mi
8:30 AM75 °FPassing clouds.3 mph65%29.98 "HgN/A
8:00 AM73 °FSunny.2 mph69%29.98 "Hg10 mi
7:30 AM70 °FSunny.2 mph73%29.98 "Hg10 mi
7:00 AM68 °FClear.No wind69%29.95 "Hg10 mi
6:30 AM70 °FClear.1 mph64%29.95 "Hg10 mi
6:00 AM68 °FClear.1 mph73%29.95 "Hg10 mi
Weather by CustomWeather, © 2014

See weather overviewHow to use our weather pages